Weather in Marau Sound

Solomon Islands     9°48′06″S   160°50′42″E
В апреле 2022 года жителям России запретили посещать сайт meteo.paraplan.net по решению Генеральной прокуратуры. Аудитория сайта уменьшилась в 10 раз. Владельцы сайта не видят смысла в поддержке погодного сервера в таких условиях. Сайт будет закрыт в октябре.
temp.,
°C
wind,
m/s
gust,
m/s
humid.,
%
clouds,
%
prec.,
mm/h
press.,
hPa
HPBL,
m
3 october, mon
mon323:00+24sse12898 1.4 1011246
02:00+24sse129062 0.1 1010217
05:00+24sse129027 1.2 1010178
08:00+26e238475 2.8 1011246
11:00+28e236993 3.9 1011822
14:00+29e3366100 0.8 1009981
17:00+27se3377100 1.7 1009470
20:00+25se248694 2.8 1011238
4 october, tue
tue423:00+24se2287100 7.1 1012105
02:00+24sse139074 0.8 1010191
05:00+24se139180 2.4 1011186
08:00+26ese248528 1.8 1013446
11:00+28e347049 2.4 1012970
14:00+26e3483100 2.5 1010698
17:00+27e2378100 3.6 1010613
20:00+24e2381100 0.0 1012331
5 october, wed
wed523:00+24se1385100 0.0 1013339
02:00+23sse1387100 0.0 1011328
05:00+24se2490100 0.4 1011272
08:00+25e358887 1.9 1013570
11:00+28ene457198 3.7 10131278
14:00+29ene356380 0.1 10101341
17:00+27ene347684 0.4 1010573
20:00+25ene238474 0.4 1012278
6 october, thu
thu623:00+24se128952 2.3 1013149
02:00+23s119075 0.3 1011178
05:00+23sse129058 0.8 1011205
08:00+26se1285100 0.1 1013349
11:00+28ese2374100 0.9 1012826
14:00+29e336857 0.4 10101024
17:00+26ese2480100 1.1 1009499
20:00+24sse239090 1.6 1011200
7 october, fri
fri723:00+24sse129081 2.0 1011226
02:00+24sse139193 0.1 1009228
05:00+23sse1291100 0.1 1010237
08:00+26e138598 0.1 1011452
11:00+28ene237649 1.3 1011799
14:00+29e3366100 0.4 10081019
17:00+27ene337698 1.9 1008592
20:00+24ene128810 1.4 1011195